Location: Newark
(41.6500°N, 71.4833°W)
Time: 04:31:26
(UTC+00:00)

SR - Visible Passes

Search period start: 25 January 2020 00:00
Search period end: 04 February 2020 00:00
Orbit: 574 x 882 km, 66.7° (Epoch: 24 January)

Date Brightness Start Highest point End Pass type
(mag) Time Alt. Az. Time Alt. Az. Time Alt. Az.
25 Jan ? 11:06:40 10° NNW 11:11:52 38° NE 11:16:39 10° ESE visible
26 Jan ? 10:17:26 10° N 10:21:46 22° NE 10:25:51 10° E visible
27 Jan ? 09:28:35 10° N 09:31:27 14° NE 09:34:14 10° ENE visible
27 Jan ? 11:09:14 10° NNW 11:14:46 66° ENE 11:19:47 10° SE visible
28 Jan ? 10:19:45 10° NNW 10:24:52 36° NE 10:29:34 10° ESE visible
29 Jan ? 09:31:02 12° N 09:34:44 21° NE 09:38:42 10° E visible
29 Jan ? 11:12:00 10° NW 11:17:27 68° WSW 11:22:24 10° SSE visible
30 Jan ? 08:43:03 12° NNE 08:44:25 13° NE 08:46:58 10° ENE visible
30 Jan ? 10:22:29 11° NNW 10:27:47 62° ENE 10:32:45 10° SE visible
31 Jan ? 09:34:37 19° N 09:37:52 34° NE 09:42:29 10° ESE visible
31 Jan ? 11:15:04 10° NW 11:19:57 35° WSW 11:24:26 10° S visible
01 Feb ? 08:46:51 20° NNE 08:47:43 20° NE 08:51:33 10° E visible
01 Feb ? 10:26:18 17° NW 10:30:29 73° WSW 10:35:25 10° SSE visible
02 Feb ? 00:53:33 10° SSW 00:55:20 21° SSW 00:55:20 21° SSW visible
02 Feb ? 07:59:14 11° NE 07:59:14 11° NE 07:59:41 10° ENE visible
02 Feb ? 09:38:41 35° N 09:40:47 58° NE 09:45:43 10° SE visible
02 Feb ? 11:18:41 10° WNW 11:22:16 19° WSW 11:25:39 10° SSW visible
03 Feb ? 00:04:26 10° S 00:08:25 35° SE 00:08:25 35° SE visible
03 Feb ? 01:46:39 10° WSW 01:47:55 16° WSW 01:47:55 16° WSW visible
03 Feb ? 08:51:12 32° ENE 08:51:12 32° ENE 08:55:23 10° ESE visible
03 Feb ? 10:30:41 25° WNW 10:33:00 38° WSW 10:37:31 10° S visible
03 Feb ? 23:16:11 10° SSE 23:20:31 22° ESE 23:21:27 21° E visible
